Location: Igon
(43.1667°N, 0.2333°W)
Time: 07:24:02
(UTC+00:00)

OBJECT B - Visible Passes

Search period start: 16 June 2021 00:00
Search period end: 26 June 2021 00:00
Orbit: 489 x 509 km, 97.4° (Epoch: 15 June)

Date Brightness Start Highest point End Pass type
(mag) Time Alt. Az. Time Alt. Az. Time Alt. Az.
16 Jun ? 03:28:31 10° S 03:32:11 83° W 03:35:51 10° NNW visible
17 Jun ? 03:08:43 10° SSE 03:12:16 53° ENE 03:15:51 10° N visible
18 Jun ? 02:49:13 10° SE 02:52:27 30° ENE 02:55:40 10° N visible
19 Jun ? 02:30:05 10° ESE 02:32:39 18° ENE 02:35:13 10° NNE visible
20 Jun ? 02:11:46 10° E 02:12:55 11° ENE 02:14:03 10° NE visible
20 Jun ? 03:42:36 10° S 03:46:11 53° W 03:49:46 10° NNW visible
21 Jun ? 03:22:36 10° SSE 03:26:14 82° E 03:29:53 10° N visible
22 Jun ? 03:02:52 10° SE 03:06:20 44° ENE 03:09:49 10° N visible
23 Jun ? 02:43:27 10° SE 02:46:30 26° ENE 02:49:33 10° NNE visible
24 Jun ? 02:24:28 10° ESE 02:26:43 16° ENE 02:28:58 10° NNE visible
25 Jun ? 03:36:34 10° S 03:40:10 65° W 03:43:48 10° NNW visible
